Montoursville, PA

5:38 PM EST on February 26, 2017 (GMT -0500)
Williamsport Rgnl

Weather History for KIPT - September, 2014

Change the Weather History Date:

Thursday, September 18, 2014

  Actual Average Record
Temperature  
Mean Temperature 60 °F 62 °F  
Max Temperature 72 °F 73 °F 88 °F (1964)
Min Temperature 48 °F 52 °F 34 °F (1925)
Degree Days  
Heating Degree Days 5 4  
Month to date heating degree days 44 41  
Since 1 July heating degree days 49 55  
Cooling Degree Days 0 2  
Month to date cooling degree days 76 52  
Year to date cooling degree days 693 686  
Growing Degree Days 10 (Base 50)    
Moisture  
Dew Point 48 °F    
Average Humidity 66    
Maximum Humidity 93    
Minimum Humidity 38    
Precipitation  
Precipitation 0.00 in 0.14 in 2.14 in (2012)
Month to date precipitation 0.69 2.50  
Year to date precipitation 29.50 29.53  
Sea Level Pressure  
Sea Level Pressure 30.04 in    
Wind  
Wind Speed 4 mph (NW)    
Max Wind Speed 12 mph    
Max Gust Speed 15 mph    
Visibility 8 miles    
Events Fog    
T = Trace of Precipitation, MM = Missing Value Source: NWS Daily Summary

Daily Weather History Graph

Daily Weather History Graph

Search for Another Location

Airport or City:

Trip Planner

Search our weather history database for the weather conditions in past years. The results will help you decide how hot, cold, wet, or windy it might be!

Date:

Astronomy

Sep. 18, 2014 Rise Set
Actual Time 6:51 AM EDT 7:11 PM EDT
Civil Twilight 6:23 AM EDT 7:39 PM EDT
Nautical Twilight 5:50 AM EDT 8:11 PM EDT
Astronomical Twilight 5:17 AM EDT 8:44 PM EDT
Moon 1:38 AM EDT (9/18) 4:03 PM EDT (9/18)
Length of Visible Light 13h 15m
Length of Day
12h 20m
Waning Crescent, 26% of the Moon is Illuminated
Sep 18
Waning Crescent
Sep 24
New
Oct 1
First Quarter
Oct 8
Full
Oct 15
Last Quarter

Hourly Weather History & Observations

Time (EDT) Temp. Dew Point Humidity Pressure Visibility Wind Dir Wind Speed Gust Speed Precip Events Conditions
12:54 AM 51.1 °F 48.0 °F 89% 29.98 in 10.0 mi Calm Calm - N/A   Clear
1:54 AM 50.0 °F 46.9 °F 89% 29.98 in 10.0 mi Calm Calm - N/A   Clear
2:54 AM 48.0 °F 45.0 °F 89% 29.98 in 10.0 mi WNW 3.5 mph - N/A   Clear
3:24 AM 48.9 °F 46.0 °F 90% 29.98 in 10.0 mi Calm Calm - N/A   Mostly Cloudy
3:52 AM 48.2 °F 46.4 °F 93% 29.98 in 10.0 mi Calm Calm - N/A   Mostly Cloudy
3:54 AM 48.9 °F 46.0 °F 90% 29.98 in 10.0 mi Calm Calm - N/A   Mostly Cloudy
4:41 AM 50.0 °F 46.0 °F 86% 29.99 in 10.0 mi NNW 3.5 mph - N/A   Overcast
4:54 AM 48.2 °F 46.4 °F 93% 29.99 in 10.0 mi NNW 3.5 mph - N/A   Overcast
5:54 AM 50.0 °F 46.0 °F 86% 30.01 in 10.0 mi Calm Calm - N/A   Overcast
6:33 AM 50.0 °F 46.9 °F 89% 30.02 in 2.0 mi Calm Calm - N/A   Overcast
6:54 AM 50.0 °F 46.9 °F 89% 30.02 in 1.0 mi NNW 4.6 mph - N/A   Overcast
7:25 AM 48.9 °F 46.9 °F 93% 30.03 in 0.5 mi NW 5.8 mph - N/A Fog Fog
7:54 AM 50.0 °F 48.2 °F 94% 30.04 in 0.5 mi WNW 4.6 mph - N/A Fog Fog
8:54 AM 51.1 °F 48.9 °F 92% 30.05 in 0.8 mi WSW 6.9 mph - N/A   Overcast
9:34 AM 52.0 °F 48.9 °F 89% 30.05 in 1.5 mi WNW 5.8 mph - N/A   Overcast
9:51 AM 53.6 °F 50.0 °F 88% 30.05 in 2.0 mi West 4.6 mph - N/A   Overcast
9:54 AM 53.1 °F 50.0 °F 89% 30.06 in 2.0 mi WNW 5.8 mph - N/A   Overcast
10:03 AM 54.0 °F 50.0 °F 86% 30.05 in 3.0 mi West 5.8 mph - N/A   Mostly Cloudy
10:16 AM 55.0 °F 50.0 °F 83% 30.05 in 10.0 mi WSW 5.8 mph - N/A   Scattered Clouds
10:54 AM 60.1 °F 50.0 °F 69% 30.05 in 10.0 mi West 4.6 mph - N/A   Clear
11:54 AM 64.9 °F 48.0 °F 54% 30.04 in 10.0 mi Variable 4.6 mph - N/A   Scattered Clouds
12:54 PM 69.1 °F 44.1 °F 40% 30.03 in 10.0 mi Variable 4.6 mph - N/A   Scattered Clouds
1:54 PM 71.1 °F 45.0 °F 39% 30.02 in 10.0 mi Variable 6.9 mph - N/A   Mostly Cloudy
2:54 PM 71.1 °F 46.0 °F 41% 30.02 in 10.0 mi NNE 3.5 mph - N/A   Mostly Cloudy
3:54 PM 70.0 °F 46.0 °F 42% 30.02 in 10.0 mi NNW 4.6 mph - N/A   Mostly Cloudy
4:54 PM 72.0 °F 45.0 °F 38% 30.02 in 10.0 mi WNW 5.8 mph - N/A   Mostly Cloudy
5:54 PM 71.1 °F 45.0 °F 39% 30.02 in 10.0 mi NW 8.1 mph - N/A   Scattered Clouds
6:54 PM 64.0 °F 51.1 °F 63% 30.04 in 10.0 mi Calm Calm - N/A   Clear
7:54 PM 57.9 °F 51.1 °F 78% 30.06 in 10.0 mi Calm Calm - N/A   Mostly Cloudy
8:54 PM 61.0 °F 50.0 °F 67% 30.10 in 10.0 mi Variable 3.5 mph - N/A   Overcast
9:54 PM 59.0 °F 48.9 °F 69% 30.14 in 10.0 mi NNE 8.1 mph - N/A   Scattered Clouds
10:18 PM 59.0 °F 48.0 °F 67% 30.15 in 10.0 mi East 3.5 mph - N/A   Mostly Cloudy
10:29 PM 57.9 °F 48.0 °F 70% 30.15 in 10.0 mi Calm Calm - N/A   Scattered Clouds
10:54 PM 57.9 °F 46.9 °F 67% 30.16 in 10.0 mi Calm Calm - N/A   Partly Cloudy
11:54 PM 57.0 °F 46.0 °F 67% 30.17 in 10.0 mi ENE 4.6 mph - N/A   Clear